Weather History for KIZA - December, 2012

Change the Weather History Date:

Wednesday, December 19, 2012

  Actual Average (KSBA) Record (KSBA)
Temperature  
Mean Temperature 44 °F 52 °F  
Max Temperature 55 °F 63 °F 79 °F (1953)
Min Temperature 33 °F 40 °F 28 °F (2006)
Degree Days  
Heating Degree Days 21 14  
Month to date heating degree days 242  
Since 1 July heating degree days 720  
Cooling Degree Days 0 0  
Month to date cooling degree days 0  
Year to date cooling degree days 188  
Moisture  
Dew Point 28 °F    
Average Humidity 60    
Maximum Humidity 87    
Minimum Humidity 24    
Precipitation  
Precipitation 0.00 in 0.10 in 2.79 in (2010)
Month to date precipitation 1.52  
Year to date precipitation 16.34  
Since 1 July precipitation 4.29  
Sea Level Pressure  
Sea Level Pressure 30.20 in    
Wind  
Wind Speed 5 mph (West)    
Max Wind Speed 9 mph    
Max Gust Speed -    
Visibility 10 miles    
Events      
T = Trace of Precipitation, MM = Missing Value Source: NWS Daily Summary

Daily Weather History Graph

Daily Weather History Graph

Search for Another Location

Airport or City:

Trip Planner

Search our weather history database for the weather conditions in past years. The results will help you decide how hot, cold, wet, or windy it might be!

Date:

Astronomy

Dec. 19, 2012 Rise Set
Actual Time 7:02 AM PST 4:52 PM PST
Civil Twilight 6:34 AM PST 5:20 PM PST
Nautical Twilight 6:03 AM PST 5:52 PM PST
Astronomical Twilight 5:32 AM PST 6:23 PM PST
Moon 11:30 AM PST (12/19) No Moon Set
Length of Visible Light 10h 46m
Length of Day
9h 50m
Waxing Crescent, 46% of the Moon is Illuminated
Dec 19
Waxing Crescent
Dec 19
First Quarter
Dec 28
Full
Jan 4
Last Quarter
Jan 11
New

Hourly Weather History & Observations

Time (PST) Temp. Windchill Dew Point Humidity Pressure Visibility Wind Dir Wind Speed Gust Speed Precip Events Conditions
12:15 AM 37.4 °F 32.8 °F 30.2 °F 75% 30.11 in 10.0 mi NW 5.8 mph - N/A   Clear
12:35 AM 39.2 °F 34.2 °F 30.2 °F 70% 30.10 in 10.0 mi NW 6.9 mph - N/A   Clear
12:55 AM 37.4 °F 32.1 °F 30.2 °F 75% 30.11 in 10.0 mi NW 6.9 mph - N/A   Clear
1:15 AM 37.4 °F 32.8 °F 28.4 °F 70% 30.11 in 10.0 mi NW 5.8 mph - N/A   Clear
1:35 AM 37.4 °F 30.8 °F 28.4 °F 70% 30.11 in 10.0 mi NNW 9.2 mph - N/A   Clear
1:55 AM 39.2 °F 34.2 °F 28.4 °F 65% 30.12 in 10.0 mi NW 6.9 mph - N/A   Clear
2:15 AM 37.4 °F 30.8 °F 28.4 °F 70% 30.12 in 10.0 mi NW 9.2 mph - N/A   Clear
2:35 AM 37.4 °F 31.4 °F 28.4 °F 70% 30.12 in 10.0 mi NW 8.1 mph - N/A   Clear
2:55 AM 37.4 °F 31.4 °F 28.4 °F 70% 30.12 in 10.0 mi NNW 8.1 mph - N/A   Clear
3:15 AM 37.4 °F 33.8 °F 28.4 °F 70% 30.13 in 10.0 mi NNW 4.6 mph - N/A   Clear
3:35 AM 37.4 °F 30.8 °F 28.4 °F 70% 30.14 in 10.0 mi NW 9.2 mph - N/A   Clear
3:55 AM 37.4 °F 32.8 °F 28.4 °F 70% 30.14 in 10.0 mi NNW 5.8 mph - N/A   Clear
4:15 AM 35.6 °F - 28.4 °F 75% 30.15 in 10.0 mi Calm Calm - N/A   Clear
4:35 AM 37.4 °F 34.9 °F 26.6 °F 65% 30.15 in 10.0 mi North 3.5 mph - N/A   Clear
4:55 AM 37.4 °F 34.9 °F 28.4 °F 70% 30.15 in 10.0 mi North 3.5 mph - N/A   Clear
5:15 AM 37.4 °F 32.8 °F 28.4 °F 70% 30.16 in 10.0 mi North 5.8 mph - N/A   Clear
5:35 AM 35.6 °F 29.9 °F 26.6 °F 70% 30.16 in 10.0 mi NNW 6.9 mph - N/A   Clear
5:55 AM 35.6 °F 31.7 °F 26.6 °F 70% 30.17 in 10.0 mi WSW 4.6 mph - N/A   Clear
6:15 AM 35.6 °F 31.7 °F 26.6 °F 70% 30.18 in 10.0 mi WSW 4.6 mph - N/A   Clear
6:35 AM 33.8 °F 29.6 °F 26.6 °F 75% 30.18 in 10.0 mi West 4.6 mph - N/A   Clear
6:55 AM 33.8 °F 27.7 °F 26.6 °F 75% 30.19 in 10.0 mi WSW 6.9 mph - N/A   Clear
7:15 AM 33.8 °F 29.6 °F 26.6 °F 75% 30.20 in 10.0 mi SW 4.6 mph - N/A   Clear
7:35 AM 33.8 °F 29.6 °F 26.6 °F 75% 30.21 in 10.0 mi SW 4.6 mph - N/A   Clear
7:55 AM 37.4 °F 33.8 °F 28.4 °F 70% 30.22 in 10.0 mi SW 4.6 mph - N/A   Clear
8:15 AM 39.2 °F - 28.4 °F 65% 30.23 in 10.0 mi Calm Calm - N/A   Clear
8:35 AM 41.0 °F - 28.4 °F 61% 30.24 in 10.0 mi Calm Calm - N/A   Clear
8:55 AM 41.0 °F - 28.4 °F 61% 30.24 in 10.0 mi Calm Calm - N/A   Clear
9:15 AM 42.8 °F - 26.6 °F 53% 30.25 in 10.0 mi Calm Calm - N/A   Clear
9:35 AM 42.8 °F - 26.6 °F 53% 30.25 in 10.0 mi Calm Calm - N/A   Clear
9:55 AM 44.6 °F - 28.4 °F 53% 30.25 in 10.0 mi Calm Calm - N/A   Clear
10:15 AM 46.4 °F 45.2 °F 28.4 °F 50% 30.25 in 10.0 mi East 3.5 mph - N/A   Clear
10:35 AM 46.4 °F - 24.8 °F 43% 30.25 in 10.0 mi Calm Calm - N/A   Clear
10:55 AM 50.0 °F - 23.0 °F 35% 30.24 in 10.0 mi Calm Calm - N/A   Clear
11:15 AM 50.0 °F - 26.6 °F 40% 30.23 in 10.0 mi West 3.5 mph - N/A   Clear
11:35 AM 51.8 °F - 23.0 °F 33% 30.23 in 10.0 mi WSW 4.6 mph - N/A   Clear
11:55 AM 51.8 °F - 19.4 °F 28% 30.23 in 10.0 mi WSW 4.6 mph - N/A   Clear
12:15 PM 51.8 °F - 19.4 °F 28% 30.22 in 10.0 mi WSW 4.6 mph - N/A   Clear
12:35 PM 53.6 °F - 17.6 °F 24% 30.21 in 10.0 mi SSW 3.5 mph - N/A   Clear
12:55 PM 53.6 °F - 17.6 °F 24% 30.20 in 10.0 mi Calm Calm - N/A   Clear
1:15 PM 53.6 °F - 21.2 °F 28% 30.20 in 10.0 mi WSW 5.8 mph - N/A   Clear
1:35 PM 55.4 °F - 21.2 °F 26% 30.20 in 10.0 mi SW 6.9 mph - N/A   Clear
1:55 PM 55.4 °F - 23.0 °F 29% 30.19 in 10.0 mi SW 6.9 mph - N/A   Clear
2:15 PM 55.4 °F - 23.0 °F 29% 30.19 in 10.0 mi WSW 4.6 mph - N/A   Clear
2:35 PM 55.4 °F - 23.0 °F 29% 30.19 in 10.0 mi SW 4.6 mph - N/A   Clear
2:55 PM 55.4 °F - 19.4 °F 25% 30.19 in 10.0 mi West 4.6 mph - N/A   Clear
3:15 PM 55.4 °F - 19.4 °F 25% 30.20 in 10.0 mi SW 3.5 mph - N/A   Clear
3:35 PM 55.4 °F - 26.6 °F 33% 30.19 in 10.0 mi SSW 6.9 mph - N/A   Clear
3:55 PM 53.6 °F - 28.4 °F 38% 30.20 in 10.0 mi SSW 6.9 mph - N/A   Clear
4:15 PM 51.8 °F - 30.2 °F 44% 30.20 in 10.0 mi SW 6.9 mph - N/A   Clear
4:35 PM 50.0 °F - 32.0 °F 50% 30.20 in 10.0 mi WSW 8.1 mph - N/A   Clear
4:55 PM 46.4 °F 44.3 °F 32.0 °F 57% 30.20 in 10.0 mi WSW 4.6 mph - N/A   Clear
5:15 PM 44.6 °F 41.4 °F 32.0 °F 61% 30.21 in 10.0 mi WSW 5.8 mph - N/A   Clear
5:35 PM 42.8 °F 40.1 °F 32.0 °F 66% 30.22 in 10.0 mi West 4.6 mph - N/A   Clear
5:55 PM 42.8 °F - 32.0 °F 66% 30.22 in 10.0 mi Calm Calm - N/A   Clear
6:15 PM 44.6 °F 43.1 °F 32.0 °F 61% 30.23 in 10.0 mi ENE 3.5 mph - N/A   Clear
6:35 PM 42.8 °F 41.1 °F 32.0 °F 66% 30.23 in 10.0 mi ENE 3.5 mph - N/A   Clear
6:55 PM 41.0 °F - 32.0 °F 70% 30.25 in 10.0 mi Calm Calm - N/A   Clear
7:15 PM 39.2 °F 35.0 °F 30.2 °F 70% 30.25 in 10.0 mi ENE 5.8 mph - N/A   Clear
7:35 PM 41.0 °F 39.0 °F 30.2 °F 65% 30.25 in 10.0 mi East 3.5 mph - N/A   Clear
7:55 PM 37.4 °F 32.8 °F 30.2 °F 75% 30.26 in 10.0 mi East 5.8 mph - N/A   Clear
8:15 PM 37.4 °F 32.8 °F 32.0 °F 81% 30.26 in 10.0 mi East 5.8 mph - N/A   Clear
8:35 PM 35.6 °F 31.7 °F 30.2 °F 81% 30.26 in 10.0 mi ENE 4.6 mph - N/A   Clear
8:55 PM 35.6 °F 31.7 °F 30.2 °F 81% 30.26 in 10.0 mi ENE 4.6 mph - N/A   Clear
9:15 PM 35.6 °F 32.8 °F 30.2 °F 81% 30.27 in 10.0 mi East 3.5 mph - N/A   Clear
9:35 PM 35.6 °F 31.7 °F 30.2 °F 81% 30.26 in 10.0 mi East 4.6 mph - N/A   Clear
9:55 PM 33.8 °F - 30.2 °F 87% 30.26 in 10.0 mi Calm Calm - N/A   Clear
10:15 PM 33.8 °F - 30.2 °F 87% 30.27 in 10.0 mi Calm Calm - N/A   Clear
10:35 PM 33.8 °F - 30.2 °F 87% 30.27 in 10.0 mi Calm Calm - N/A   Clear
10:55 PM 33.8 °F 30.8 °F 30.2 °F 87% 30.27 in 10.0 mi ESE 3.5 mph - N/A   Clear
11:35 PM 33.8 °F 30.8 °F 30.2 °F 87% 30.26 in 10.0 mi ESE 3.5 mph - N/A   Clear
11:55 PM 33.8 °F 29.6 °F 28.4 °F 81% 30.25 in 10.0 mi ENE 4.6 mph - N/A   Clear